Location: ?????
(31.8092°N, 35.2590°E)
Time: 20:13:14
(UTC+00:00)

SL-16 R/B - Pass Details

Date: 20 June 2021
Orbit: 842 x 847 km, 71.0° (Epoch: 02 August)

Event Time Altitude Azimuth Distance (km) Brightness Sun altitude
Exits shadow 22:24:08 15° 299° (WNW) 2,117 4.4 -33.8°
Maximum altitude 22:24:27 15° 303° (WNW) 2,113 4.4 -33.8°
Drops below altitude 10° 22:27:40 10° 337° (NNW) 2,466 5.2 -33.6°
Sets 22:31:15 0° 0° (N) 3,404 6.4 -33.4°
